Location: An Tulaigh
(53.1928°N, 8.1647°W)
Time: 23:50:50
(UTC+00:00)

NOSS 3-3 (A) - Pass Details

Date: 15 May 2026
Orbit: 691 x 1518 km, 63.4° (Epoch: 11 January)

Event Time Altitude Azimuth Distance (km) Brightness Sun altitude
Rises 21:46:07 0° 230° (SW) 3,194 6.7 -9.7°
Reaches altitude 10° 21:48:19 10° 232° (SW) 2,340 6.0 -9.9°
Maximum altitude 21:53:41 79° 319° (NW) 906 4.0 -10.4°
Drops below altitude 10° 22:00:16 10° 47° (NE) 2,847 6.5 -11.0°
Sets 22:03:11 0° 49° (NE) 3,939 7.2 -11.2°
